Lake Minchumina, AK

6:57 AM AKDT on September 26, 2016 (GMT -0800)
Minchumina

Weather History for PAMH - October, 2012

Change the Weather History Date:

Friday, October 12, 2012

  Actual Average Record
Temperature  
Mean Temperature 26 °F -  
Max Temperature 32 °F 28 °F 39 °F (2006)
Min Temperature 19 °F 18 °F 8 °F (1997)
Degree Days  
Heating Degree Days 40    
Moisture  
Dew Point 11 °F    
Average Humidity 59    
Maximum Humidity 74    
Minimum Humidity 44    
Precipitation  
Precipitation 0.00 in - - ()
Sea Level Pressure  
Sea Level Pressure 29.51 in    
Wind  
Wind Speed 1 mph (NNE)    
Max Wind Speed 6 mph    
Max Gust Speed -    
Visibility 10 miles    
Events      
Averages and records for this station are not official NWS values.
T = Trace of Precipitation, MM = Missing Value Source: NWS Daily Summary

Daily Weather History Graph

Daily Weather History Graph

Search for Another Location

Airport or City:

Trip Planner

Search our weather history database for the weather conditions in past years. The results will help you decide how hot, cold, wet, or windy it might be!

Date:

Astronomy

Oct. 12, 2012 Rise Set
Actual Time 8:51 AM AKDT 6:57 PM AKDT
Civil Twilight 8:03 AM AKDT 7:45 PM AKDT
Nautical Twilight 7:09 AM AKDT 8:39 PM AKDT
Astronomical Twilight 6:12 AM AKDT 9:35 PM AKDT
Moon 4:55 AM AKDT (10/12) 5:51 PM AKDT (10/12)
Length of Visible Light 11h 41m
Length of Day
10h 05m
Waning Crescent, 10% of the Moon is Illuminated
Oct 12
Waning Crescent
Oct 15
New
Oct 21
First Quarter
Oct 29
Full
Nov 6
Last Quarter

Hourly Weather History & Observations

Time (AKDT) Temp. Windchill Dew Point Humidity Pressure Visibility Wind Dir Wind Speed Gust Speed Precip Events Conditions
12:16 AM 24.8 °F - 10.4 °F 54% 29.69 in 10.0 mi Calm Calm - N/A   Clear
12:36 AM 24.8 °F - 10.4 °F 54% 29.68 in 10.0 mi Calm Calm - N/A   Clear
12:56 AM 24.8 °F - 10.4 °F 54% 29.68 in 10.0 mi Calm Calm - N/A   Clear
1:16 AM 24.8 °F - 10.4 °F 54% 29.67 in 10.0 mi Calm Calm - N/A   Clear
1:36 AM 24.8 °F - 10.4 °F 54% 29.66 in 10.0 mi Calm Calm - N/A   Clear
1:56 AM 23.0 °F - 10.4 °F 59% 29.66 in 10.0 mi Calm Calm - N/A   Clear
2:16 AM 23.0 °F - 10.4 °F 59% 29.65 in 10.0 mi Calm Calm - N/A   Clear
2:36 AM 23.0 °F - 10.4 °F 59% 29.64 in 10.0 mi Calm Calm - N/A   Clear
2:56 AM 21.2 °F - 10.4 °F 63% 29.63 in 10.0 mi Calm Calm - N/A   Clear
3:16 AM 21.2 °F - 10.4 °F 63% 29.63 in 10.0 mi Calm Calm - N/A   Clear
3:36 AM 21.2 °F - 10.4 °F 63% 29.62 in 10.0 mi Calm Calm - N/A   Clear
4:16 AM 21.2 °F - 10.4 °F 63% 29.61 in 10.0 mi Calm Calm - N/A   Clear
4:36 AM 21.2 °F - 10.4 °F 63% 29.60 in 10.0 mi Calm Calm - N/A   Clear
4:56 AM 19.4 °F - 10.4 °F 68% 29.60 in 10.0 mi Calm Calm - N/A   Clear
5:16 AM 19.4 °F - 10.4 °F 68% 29.59 in 10.0 mi Calm Calm - N/A   Clear
5:36 AM 19.4 °F - 10.4 °F 68% 29.58 in 10.0 mi Calm Calm - N/A   Clear
5:56 AM 21.2 °F - 12.2 °F 68% 29.57 in 10.0 mi Calm Calm - N/A   Clear
6:16 AM 21.2 °F - 10.4 °F 63% 29.56 in 10.0 mi Calm Calm - N/A   Clear
6:36 AM 21.2 °F - 12.2 °F 68% 29.56 in 10.0 mi Calm Calm - N/A   Clear
6:56 AM 21.2 °F - 10.4 °F 63% 29.55 in 10.0 mi Calm Calm - N/A   Clear
7:16 AM 19.4 °F - 8.6 °F 63% 29.55 in 10.0 mi Calm Calm - N/A   Clear
7:36 AM 19.4 °F - 10.4 °F 68% 29.54 in 10.0 mi Calm Calm - N/A   Scattered Clouds
7:56 AM 19.4 °F - 10.4 °F 68% 29.54 in 10.0 mi Calm Calm - N/A   Overcast
8:16 AM 19.4 °F - 10.4 °F 68% 29.54 in 10.0 mi Calm Calm - N/A   Overcast
8:36 AM 19.4 °F - 12.2 °F 74% 29.53 in 10.0 mi Calm Calm - N/A   Overcast
8:56 AM 19.4 °F - 10.4 °F 68% 29.52 in 10.0 mi Calm Calm - N/A   Overcast
9:16 AM 21.2 °F - 10.4 °F 63% 29.52 in 10.0 mi Calm Calm - N/A   Overcast
9:36 AM 21.2 °F - 10.4 °F 63% 29.51 in 10.0 mi Calm Calm - N/A   Overcast
9:56 AM 23.0 °F - 10.4 °F 59% 29.51 in 10.0 mi Calm Calm - N/A   Overcast
11:16 AM 24.8 °F - 12.2 °F 59% 29.49 in 10.0 mi Calm Calm - N/A   Overcast
11:36 AM 24.8 °F - 12.2 °F 59% 29.49 in 10.0 mi Calm Calm - N/A   Overcast
11:56 AM 24.8 °F - 12.2 °F 59% 29.49 in 10.0 mi Calm Calm - N/A   Overcast
12:16 PM 26.6 °F 22.6 °F 12.2 °F 55% 29.49 in 10.0 mi NE 3.5 mph - N/A   Overcast
2:16 PM 28.4 °F - 14.0 °F 55% 29.46 in 10.0 mi Calm Calm - N/A   Overcast
2:36 PM 30.2 °F 25.4 °F 14.0 °F 51% 29.46 in 10.0 mi NE 4.6 mph - N/A   Overcast
2:56 PM 30.2 °F 25.4 °F 12.2 °F 47% 29.46 in 10.0 mi NE 4.6 mph - N/A   Mostly Cloudy
3:16 PM 32.0 °F 27.5 °F 12.2 °F 44% 29.45 in 10.0 mi NNE 4.6 mph - N/A   Mostly Cloudy
3:36 PM 30.2 °F 26.7 °F 12.2 °F 47% 29.45 in 10.0 mi NE 3.5 mph - N/A   Overcast
3:56 PM 30.2 °F 25.4 °F 12.2 °F 47% 29.44 in 10.0 mi NNE 4.6 mph - N/A   Scattered Clouds
4:16 PM 30.2 °F 26.7 °F 14.0 °F 51% 29.44 in 10.0 mi NE 3.5 mph - N/A   Scattered Clouds
4:36 PM 30.2 °F 25.4 °F 15.8 °F 55% 29.44 in 10.0 mi NNE 4.6 mph - N/A   Mostly Cloudy
4:56 PM 30.2 °F 25.4 °F 12.2 °F 47% 29.43 in 10.0 mi NNE 4.6 mph - N/A   Mostly Cloudy
5:16 PM 30.2 °F 25.4 °F 12.2 °F 47% 29.43 in 10.0 mi NNE 4.6 mph - N/A   Overcast
5:36 PM 28.4 °F 23.3 °F 12.2 °F 51% 29.43 in 10.0 mi NNE 4.6 mph - N/A   Mostly Cloudy
5:56 PM 28.4 °F 23.3 °F 10.4 °F 47% 29.43 in 10.0 mi NNE 4.6 mph - N/A   Scattered Clouds
6:16 PM 28.4 °F 24.6 °F 12.2 °F 51% 29.43 in 10.0 mi NNE 3.5 mph - N/A   Clear
6:36 PM 28.4 °F 24.6 °F 12.2 °F 51% 29.43 in 10.0 mi NNE 3.5 mph - N/A   Mostly Cloudy
6:56 PM 26.6 °F 21.2 °F 12.2 °F 55% 29.43 in 10.0 mi NNE 4.6 mph - N/A   Mostly Cloudy
7:16 PM 26.6 °F - 12.2 °F 55% 29.43 in 10.0 mi Calm Calm - N/A   Mostly Cloudy
7:36 PM 24.8 °F - 12.2 °F 59% 29.43 in 10.0 mi Calm Calm - N/A   Partly Cloudy
7:56 PM 24.8 °F 20.5 °F 12.2 °F 59% 29.43 in 10.0 mi NNE 3.5 mph - N/A   Clear
8:16 PM 24.8 °F 20.5 °F 12.2 °F 59% 29.43 in 10.0 mi NNE 3.5 mph - N/A   Clear
8:36 PM 23.0 °F - 12.2 °F 63% 29.43 in 10.0 mi Calm Calm - N/A   Clear
8:56 PM 23.0 °F 17.0 °F 12.2 °F 63% 29.42 in 10.0 mi NNE 4.6 mph - N/A   Clear
9:16 PM 21.2 °F - 12.2 °F 68% 29.42 in 10.0 mi Calm Calm - N/A   Clear
10:16 PM 21.2 °F 16.4 °F 10.4 °F 63% 29.42 in 10.0 mi NNE 3.5 mph - N/A   Clear
10:36 PM 21.2 °F - 10.4 °F 63% 29.42 in 10.0 mi Calm Calm - N/A   Clear
10:56 PM 19.4 °F 14.3 °F 10.4 °F 68% 29.42 in 10.0 mi NNE 3.5 mph - N/A   Clear
11:16 PM 19.4 °F 12.8 °F 10.4 °F 68% 29.41 in 10.0 mi NE 4.6 mph - N/A   Clear
11:36 PM 21.2 °F 13.6 °F 10.4 °F 63% 29.40 in 10.0 mi NE 5.8 mph - N/A   Clear
11:56 PM 21.2 °F 16.4 °F 10.4 °F 63% 29.41 in 10.0 mi NNE 3.5 mph - N/A   Clear